| time (UTC) | temp F | wind direction | speed MPH | gust MPH | rain 1hr in | rain 24hr in | rain mn in | humidity % | barometer mb |
| 20260505152703 | 56 | 172 | 5.0 | 12.0 | 0.00 | 0.00 | 0.00 | 55 | 1011.2 |
| 20260505151803 | 56 | 160 | 5.0 | 9.0 | 0.00 | 0.00 | 0.00 | 58 | 1011.1 |
| 20260505150903 | 56 | 172 | 3.0 | 9.0 | 0.00 | 0.00 | 0.00 | 59 | 1011.2 |
| 20260505130216 | 58 | 295 | 4.0 | 9.0 | 0.00 | 0.00 | 0.00 | 42 | 1011.6 |
| 20260505124503 | 58 | 296 | 1.0 | 6.0 | 0.00 | 0.00 | 0.00 | 43 | 1011.6 |
| 20260505123819 | 58 | 268 | 1.0 | 5.0 | 0.00 | 0.00 | 0.00 | 43 | 1011.5 |
| 20260505122703 | 59 | 200 | 1.0 | 5.0 | 0.00 | 0.00 | 0.00 | 45 | 1011.5 |
| 20260505122017 | 59 | 162 | 1.0 | 5.0 | 0.00 | 0.00 | 0.00 | 46 | 1011.6 |
| 20260505120903 | 58 | 154 | 1.0 | 3.0 | 0.00 | 0.00 | 0.00 | 43 | 1011.6 |
| 20260505120216 | 57 | 277 | 1.0 | 5.0 | 0.00 | 0.00 | 0.00 | 41 | 1011.6 |
| 20260505115615 | 57 | 262 | 1.0 | 4.0 | 0.00 | 0.00 | 0.00 | 40 | 1011.6 |
| 20260505114503 | 56 | 287 | 1.0 | 4.0 | 0.00 | 0.00 | 0.00 | 44 | 1011.6 |
| 20260505113603 | 56 | 330 | 1.0 | 7.0 | 0.00 | 0.00 | 0.00 | 44 | 1011.7 |
| 20260505112917 | 55 | 341 | 3.0 | 8.0 | 0.00 | 0.00 | 0.00 | 42 | 1011.8 |
| 20260505111803 | 55 | 326 | 2.0 | 6.0 | 0.00 | 0.00 | 0.00 | 43 | 1011.8 |
| 20260505111116 | 55 | 326 | 3.0 | 9.0 | 0.00 | 0.00 | 0.00 | 45 | 1011.8 |
| 20260505110215 | 55 | 323 | 2.0 | 6.0 | 0.00 | 0.00 | 0.00 | 46 | 1011.9 |
| 20260505101803 | 54 | 327 | 2.0 | 5.0 | 0.00 | 0.00 | 0.00 | 50 | 1012.0 |
| 20260505100903 | 54 | 324 | 3.0 | 8.0 | 0.00 | 0.00 | 0.00 | 47 | 1012.1 |
| 20260505100003 | 54 | 305 | 2.0 | 7.0 | 0.00 | 0.00 | 0.00 | 58 | 1012.0 |
| 20260505095403 | 54 | 10 | 1.0 | 5.0 | 0.00 | 0.00 | 0.00 | 56 | 1012.0 |
| 20260505094503 | 53 | 323 | 2.0 | 7.0 | 0.00 | 0.00 | 0.00 | 58 | 1012.1 |
| 20260505093603 | 53 | 321 | 1.0 | 6.0 | 0.00 | 0.00 | 0.00 | 60 | 1012.1 |
| 20260505092703 | 52 | 330 | 3.0 | 7.0 | 0.00 | 0.00 | 0.00 | 62 | 1012.2 |
| 20260505091803 | 52 | 312 | 1.0 | 7.0 | 0.00 | 0.00 | 0.00 | 66 | 1012.2 |
| 20260505090903 | 52 | 310 | 3.0 | 7.0 | 0.00 | 0.00 | 0.00 | 66 | 1012.2 |
| 20260505090003 | 52 | 327 | 3.0 | 8.0 | 0.00 | 0.00 | 0.00 | 66 | 1012.3 |
| 20260505085403 | 52 | 310 | 2.0 | 7.0 | 0.00 | 0.00 | 0.00 | 66 | 1012.2 |
| 20260505084503 | 51 | 284 | 1.0 | 6.0 | 0.00 | 0.00 | 0.00 | 70 | 1012.2 |
| 20260505083817 | 51 | 296 | 3.0 | 8.0 | 0.00 | 0.00 | 0.00 | 69 | 1012.2 |
| 20260505082703 | 51 | 303 | 4.0 | 8.0 | 0.00 | 0.00 | 0.00 | 70 | 1012.1 |
| 20260505082016 | 51 | 296 | 3.0 | 8.0 | 0.00 | 0.00 | 0.00 | 72 | 1012.1 |
| 20260505081119 | 50 | 296 | 3.0 | 7.0 | 0.00 | 0.00 | 0.00 | 73 | 1012.1 |
| 20260505080003 | 50 | 302 | 4.0 | 11.0 | 0.00 | 0.00 | 0.00 | 73 | 1012.1 |
| 20260505075618 | 50 | 290 | 5.0 | 12.0 | 0.00 | 0.00 | 0.00 | 72 | 1012.1 |
| 20260505074717 | 50 | 297 | 4.0 | 10.0 | 0.00 | 0.00 | 0.00 | 73 | 1012.1 |
| 20260505073817 | 49 | 285 | 5.0 | 10.0 | 0.00 | 0.00 | 0.00 | 73 | 1012.0 |
| 20260505072703 | 49 | 309 | 3.0 | 10.0 | 0.00 | 0.00 | 0.00 | 75 | 1012.1 |
| 20260505071803 | 48 | 319 | 5.0 | 12.0 | 0.00 | 0.00 | 0.00 | 76 | 1012.1 |
| 20260505070903 | 48 | 291 | 4.0 | 11.0 | 0.00 | 0.00 | 0.00 | 78 | 1012.0 |
| 20260505070003 | 48 | 299 | 5.0 | 11.0 | 0.00 | 0.00 | 0.00 | 79 | 1012.0 |
| 20260505065403 | 48 | 305 | 4.0 | 10.0 | 0.00 | 0.00 | 0.00 | 81 | 1012.0 |
| 20260505064503 | 47 | 287 | 4.0 | 8.0 | 0.00 | 0.00 | 0.00 | 84 | 1012.1 |
| 20260505063816 | 46 | 288 | 3.0 | 8.0 | 0.00 | 0.00 | 0.00 | 84 | 1012.2 |
| 20260505062703 | 46 | 290 | 3.0 | 6.0 | 0.00 | 0.00 | 0.00 | 86 | 1012.2 |
| 20260505061803 | 46 | 282 | 2.0 | 6.0 | 0.00 | 0.00 | 0.00 | 88 | 1012.1 |
| 20260505060903 | 45 | 276 | 1.0 | 4.0 | 0.00 | 0.00 | 0.00 | 88 | 1012.2 |
| 20260505060003 | 44 | 295 | 1.0 | 4.0 | 0.00 | 0.00 | 0.00 | 89 | 1012.1 |
| 20260505055403 | 44 | 282 | 2.0 | 4.0 | 0.00 | 0.00 | 0.00 | 89 | 1012.2 |
| 20260505054503 | 44 | 0 | 0.0 | 3.0 | 0.00 | 0.00 | 0.00 | 90 | 1012.2 |
| 20260505053816 | 44 | 301 | 1.0 | 4.0 | 0.00 | 0.00 | 0.00 | 90 | 1012.2 |
| 20260505052703 | 43 | 0 | 0.0 | 1.0 | 0.00 | 0.00 | 0.00 | 90 | 1012.2 |
| 20260505051803 | 43 | 0 | 0.0 | 2.0 | 0.00 | 0.00 | 0.00 | 91 | 1012.1 |
| 20260505050903 | 43 | 0 | 0.0 | 0.0 | 0.00 | 0.00 | 0.00 | 91 | 1012.1 |
| 20260505041118 | 40 | 0 | 0.0 | 2.0 | 0.00 | 0.00 | 0.00 | 91 | 1012.0 |
| 20260505040217 | 40 | 0 | 0.0 | 2.0 | 0.00 | 0.00 | 0.00 | 91 | 1012.0 |
| 20260505035403 | 40 | 0 | 0.0 | 1.0 | 0.00 | 0.00 | 0.00 | 91 | 1011.9 |
| 20260505034716 | 40 | 0 | 0.0 | 1.0 | 0.00 | 0.00 | 0.00 | 91 | 1011.9 |
| 20260505033603 | 39 | 0 | 0.0 | 2.0 | 0.00 | 0.00 | 0.00 | 91 | 1011.9 |
| 20260505032703 | 39 | 0 | 0.0 | 2.0 | 0.00 | 0.00 | 0.00 | 91 | 1012.0 |
| 20260505031803 | 39 | 0 | 0.0 | 0.0 | 0.00 | 0.00 | 0.00 | 91 | 1012.0 |
| 20260505030903 | 39 | 0 | 0.0 | 1.0 | 0.00 | 0.00 | 0.00 | 90 | 1012.0 |
| 20260505030003 | 40 | 0 | 0.0 | 5.0 | 0.00 | 0.00 | 0.00 | 90 | 1012.0 |
| 20260505025403 | 40 | 292 | 1.0 | 5.0 | 0.00 | 0.00 | 0.00 | 90 | 1012.0 |
| 20260505024503 | 40 | 0 | 0.0 | 3.0 | 0.00 | 0.00 | 0.00 | 90 | 1012.1 |
| 20260505023603 | 40 | 0 | 0.0 | 2.0 | 0.00 | 0.00 | 0.00 | 91 | 1012.2 |
| 20260505022703 | 40 | 0 | 0.0 | 0.0 | 0.00 | 0.00 | 0.00 | 90 | 1012.1 |
| 20260505021803 | 40 | 0 | 0.0 | 1.0 | 0.00 | 0.00 | 0.00 | 90 | 1012.2 |
| 20260505020903 | 40 | 0 | 0.0 | 2.0 | 0.00 | 0.01 | 0.00 | 90 | 1012.2 |
| 20260505020216 | 40 | 0 | 0.0 | 2.0 | 0.00 | 0.01 | 0.00 | 90 | 1012.4 |
| 20260505015403 | 40 | 0 | 0.0 | 1.0 | 0.00 | 0.01 | 0.00 | 90 | 1012.3 |
| 20260505014719 | 40 | 0 | 0.0 | 0.0 | 0.00 | 0.01 | 0.00 | 90 | 1012.4 |
| 20260505013603 | 40 | 0 | 0.0 | 1.0 | 0.00 | 0.01 | 0.00 | 90 | 1012.4 |
| 20260505012703 | 40 | 0 | 0.0 | 1.0 | 0.00 | 0.01 | 0.00 | 89 | 1012.5 |
| 20260505011803 | 40 | 0 | 0.0 | 1.0 | 0.00 | 0.01 | 0.00 | 89 | 1012.5 |
| 20260505010903 | 40 | 0 | 0.0 | 2.0 | 0.00 | 0.01 | 0.00 | 89 | 1012.7 |
| 20260505010003 | 40 | 0 | 0.0 | 1.0 | 0.00 | 0.01 | 0.00 | 89 | 1012.6 |
| 20260505005403 | 40 | 0 | 0.0 | 2.0 | 0.00 | 0.01 | 0.00 | 89 | 1012.6 |
| 20260505004503 | 41 | 0 | 0.0 | 2.0 | 0.00 | 0.01 | 0.00 | 89 | 1012.7 |
| 20260505003603 | 41 | 280 | 1.0 | 3.0 | 0.00 | 0.02 | 0.00 | 88 | 1012.7 |
| 20260505002703 | 41 | 286 | 1.0 | 4.0 | 0.00 | 0.02 | 0.00 | 88 | 1012.7 |
| 20260505001803 | 41 | 0 | 0.0 | 3.0 | 0.00 | 0.03 | 0.00 | 88 | 1012.8 |
| 20260505000903 | 41 | 0 | 0.0 | 3.0 | 0.00 | 0.06 | 0.00 | 88 | 1012.7 |
| 20260505000003 | 42 | 270 | 1.0 | 3.0 | 0.00 | 0.09 | 0.00 | 87 | 1012.8 |
| 20260504235403 | 42 | 277 | 1.0 | 4.0 | 0.00 | 0.12 | 0.00 | 87 | 1012.8 |
| 20260504234503 | 42 | 283 | 1.0 | 6.0 | 0.00 | 0.16 | 0.00 | 87 | 1012.7 |
| 20260504233603 | 42 | 273 | 1.0 | 6.0 | 0.00 | 0.18 | 0.00 | 87 | 1012.8 |
| 20260504232917 | 42 | 265 | 1.0 | 6.0 | 0.00 | 0.19 | 0.00 | 87 | 1012.8 |
| 20260504231803 | 42 | 275 | 1.0 | 4.0 | 0.00 | 0.19 | 0.00 | 86 | 1012.7 |
| 20260504230903 | 42 | 282 | 1.0 | 4.0 | 0.00 | 0.20 | 0.00 | 86 | 1012.7 |
| 20260504230219 | 42 | 280 | 1.0 | 5.0 | 0.00 | 0.20 | 0.00 | 86 | 1012.7 |
| 20260504225403 | 43 | 277 | 1.0 | 4.0 | 0.00 | 0.20 | 0.00 | 86 | 1012.8 |
| 20260504224503 | 43 | 274 | 1.0 | 4.0 | 0.00 | 0.20 | 0.00 | 86 | 1012.8 |
| 20260504223603 | 43 | 269 | 1.0 | 4.0 | 0.00 | 0.20 | 0.00 | 85 | 1012.8 |
| 20260504222703 | 43 | 263 | 1.0 | 4.0 | 0.00 | 0.20 | 0.00 | 85 | 1012.7 |
| 20260504222016 | 43 | 269 | 1.0 | 4.0 | 0.00 | 0.20 | 0.00 | 85 | 1012.7 |
| 20260504220903 | 44 | 275 | 1.0 | 4.0 | 0.00 | 0.20 | 0.00 | 84 | 1012.7 |
| 20260504220003 | 44 | 277 | 1.0 | 3.0 | 0.00 | 0.21 | 0.00 | 84 | 1012.8 |
| 20260504215618 | 44 | 282 | 1.0 | 4.0 | 0.00 | 0.21 | 0.21 | 84 | 1012.8 |
| 20260504214503 | 44 | 278 | 1.0 | 4.0 | 0.00 | 0.21 | 0.21 | 84 | 1012.9 |
| 20260504213603 | 44 | 0 | 0.0 | 2.0 | 0.00 | 0.22 | 0.21 | 84 | 1012.9 |
| 20260504212916 | 44 | 0 | 0.0 | 1.0 | 0.00 | 0.23 | 0.21 | 84 | 1012.8 |
| 20260504211803 | 44 | 289 | 1.0 | 3.0 | 0.00 | 0.24 | 0.21 | 83 | 1012.8 |
| 20260504210903 | 44 | 290 | 1.0 | 3.0 | 0.00 | 0.25 | 0.21 | 83 | 1012.8 |
| 20260504210003 | 45 | 288 | 1.0 | 4.0 | 0.00 | 0.25 | 0.21 | 83 | 1012.7 |
| 20260504205403 | 45 | 0 | 0.0 | 2.0 | 0.00 | 0.26 | 0.21 | 82 | 1012.8 |
| 20260504204503 | 45 | 290 | 1.0 | 4.0 | 0.00 | 0.27 | 0.21 | 82 | 1012.8 |
| 20260504203816 | 46 | 290 | 1.0 | 4.0 | 0.00 | 0.28 | 0.21 | 81 | 1012.8 |
| 20260504202703 | 46 | 292 | 1.0 | 5.0 | 0.00 | 0.29 | 0.21 | 81 | 1012.9 |
| 20260504201803 | 46 | 293 | 2.0 | 5.0 | 0.00 | 0.31 | 0.21 | 81 | 1012.8 |
| 20260504200903 | 46 | 293 | 1.0 | 4.0 | 0.00 | 0.33 | 0.21 | 81 | 1012.8 |
| 20260504200003 | 46 | 291 | 1.0 | 5.0 | 0.00 | 0.35 | 0.21 | 80 | 1012.8 |
| 20260504195403 | 47 | 296 | 2.0 | 6.0 | 0.00 | 0.36 | 0.21 | 80 | 1012.8 |
| 20260504194503 | 47 | 286 | 1.0 | 5.0 | 0.00 | 0.38 | 0.21 | 80 | 1012.7 |
| 20260504193603 | 47 | 295 | 1.0 | 4.0 | 0.00 | 0.39 | 0.21 | 80 | 1012.7 |
| 20260504192703 | 47 | 305 | 3.0 | 6.0 | 0.00 | 0.39 | 0.21 | 79 | 1012.7 |
| 20260504192019 | 48 | 304 | 2.0 | 6.0 | 0.00 | 0.39 | 0.21 | 79 | 1012.6 |
| 20260504190903 | 48 | 310 | 2.0 | 9.0 | 0.00 | 0.39 | 0.21 | 78 | 1012.5 |
| 20260504190003 | 48 | 309 | 4.0 | 10.0 | 0.00 | 0.39 | 0.21 | 78 | 1012.6 |
| 20260504185617 | 49 | 306 | 4.0 | 10.0 | 0.00 | 0.39 | 0.21 | 77 | 1012.5 |
| 20260504184503 | 49 | 300 | 4.0 | 9.0 | 0.00 | 0.39 | 0.21 | 77 | 1012.5 |
| 20260504183603 | 50 | 300 | 5.0 | 11.0 | 0.00 | 0.39 | 0.21 | 76 | 1012.4 |
| 20260504182703 | 50 | 302 | 3.0 | 10.0 | 0.00 | 0.40 | 0.21 | 76 | 1012.3 |
| 20260504181803 | 51 | 308 | 4.0 | 10.0 | 0.00 | 0.40 | 0.21 | 75 | 1012.2 |
| 20260504180903 | 51 | 311 | 5.0 | 11.0 | 0.00 | 0.40 | 0.21 | 75 | 1012.1 |
| 20260504180003 | 52 | 313 | 5.0 | 11.0 | 0.00 | 0.40 | 0.21 | 74 | 1012.1 |
| 20260504175403 | 53 | 314 | 5.0 | 10.0 | 0.00 | 0.40 | 0.21 | 74 | 1012.0 |
| 20260504174503 | 53 | 305 | 6.0 | 11.0 | 0.00 | 0.41 | 0.21 | 72 | 1012.0 |
| 20260504173603 | 54 | 302 | 4.0 | 11.0 | 0.00 | 0.43 | 0.21 | 71 | 1012.0 |
| 20260504172703 | 54 | 316 | 5.0 | 10.0 | 0.00 | 0.43 | 0.21 | 71 | 1011.9 |
| 20260504171803 | 54 | 307 | 5.0 | 10.0 | 0.00 | 0.44 | 0.21 | 70 | 1012.0 |
| 20260504170903 | 55 | 317 | 5.0 | 15.0 | 0.00 | 0.45 | 0.21 | 69 | 1011.8 |
| 20260504170217 | 55 | 308 | 4.0 | 8.0 | 0.00 | 0.45 | 0.21 | 69 | 1011.7 |